DW0805 Ramloese DK current weather conditions

sailwx.info

Wind from 274 at 10 knots gusting 15

Air temperature 8.9° C
Dewpoint 8.0° C

Last reported at 2014-Dec-22 08:55 UTC.
Time now 2014-Dec-22 09:56 UTC

Location: N 56°01' E 012°05'.
View on Google Maps.

See reports from other nearby stations

  
Tides and Currents Weather Stations Pressure Air Temp Water Temp Dewpoint Dewpoint Depression Visibility Wind Speed Wind Dir Waves Ship Positions
date/time (UTC)wind fromknots sea level pressurealtimeterstation pressurevisibilityair tempwater tempwave heightnotes
2014-Dec-22 08:55 274 10 gusting 15 8.9
2014-Dec-22 08:45 266 13 gusting 15 8.9
2014-Dec-22 08:35 262 6 gusting 13 8.9
2014-Dec-22 08:25 263 6 gusting 11 8.9
2014-Dec-22 08:15 265 6 gusting 12 8.9
2014-Dec-22 08:05 264 6 gusting 13 8.9
2014-Dec-22 07:55 279 10 gusting 15 8.9
2014-Dec-22 07:45 261 7 gusting 13 8.9
2014-Dec-22 07:35 262 8 gusting 13 8.9
2014-Dec-22 07:25 267 8 gusting 13 8.9
2014-Dec-22 07:15 266 8 gusting 15 8.3
2014-Dec-22 07:05 259 8 gusting 18 8.3
2014-Dec-22 06:55 272 8 gusting 18 8.9
2014-Dec-22 06:45 261 8 gusting 15 8.3
2014-Dec-22 06:35 266 11 gusting 17 8.3
2014-Dec-22 06:25 267 7 gusting 15 8.3
2014-Dec-22 06:15 274 8 gusting 13 8.3
2014-Dec-22 06:05 270 7 gusting 13 8.3
2014-Dec-22 05:55 274 11 gusting 15 8.3
2014-Dec-22 05:45 297 8 gusting 14 8.9
2014-Dec-22 05:35 255 11 gusting 18 8.3
2014-Dec-22 05:25 265 11 gusting 19 8.3
2014-Dec-22 05:15 273 11 gusting 15 8.3
2014-Dec-22 05:05 269 10 gusting 18 8.3
2014-Dec-22 04:55 260 13 gusting 19 8.3
2014-Dec-22 04:45 260 12 gusting 17 8.3
2014-Dec-22 04:35 263 12 gusting 18 8.3
2014-Dec-22 04:25 270 13 gusting 20 8.3
2014-Dec-22 04:15 268 11 gusting 18 8.3
2014-Dec-22 04:05 255 12 gusting 19 8.3
2014-Dec-22 03:55 265 10 gusting 19 8.3
2014-Dec-22 03:45 272 12 gusting 19 8.3
2014-Dec-22 03:35 259 11 gusting 20 8.3
2014-Dec-22 03:25 275 13 gusting 17 8.3
2014-Dec-22 03:15 249 13 gusting 19 8.3
2014-Dec-22 03:05 258 12 gusting 19 8.3
2014-Dec-22 02:55 268 11 gusting 25 8.3
2014-Dec-22 02:45 251 13 gusting 21 8.3
2014-Dec-22 02:35 265 13 gusting 20 8.3
2014-Dec-22 02:25 270 14 gusting 20 8.3
2014-Dec-22 02:15 257 11 gusting 20 8.3
2014-Dec-22 02:05 262 14 gusting 21 8.3
2014-Dec-22 01:55 246 11 gusting 21 7.8
2014-Dec-22 01:45 266 22 gusting 21 7.8
2014-Dec-22 01:35 267 13 gusting 19 7.8
2014-Dec-22 01:25 276 12 gusting 22 7.8
2014-Dec-22 01:15 267 12 gusting 19 7.8
2014-Dec-22 01:05 274 10 gusting 20 7.8
2014-Dec-22 00:55 264 19 gusting 20 7.8
2014-Dec-22 00:45 248 10 gusting 18 7.8
2014-Dec-22 00:35 258 11 gusting 22 7.8
2014-Dec-22 00:25 256 12 gusting 21 7.8
2014-Dec-22 00:15 263 13 gusting 19 7.8
2014-Dec-22 00:05 269 12 gusting 18 7.8
2014-Dec-21 23:55 265 13 gusting 18 7.8
2014-Dec-21 23:45 247 13 gusting 17 7.8
2014-Dec-21 23:35 246 14 gusting 20 7.8
2014-Dec-21 23:25 261 12 gusting 18 7.2
2014-Dec-21 23:15 254 11 gusting 15 7.2
2014-Dec-21 23:05 258 14 gusting 21 7.2
2014-Dec-21 22:55 261 13 gusting 22 7.2
2014-Dec-21 22:45 254 13 gusting 22 7.2
2014-Dec-21 22:35 255 10 gusting 15 7.2
2014-Dec-21 22:25 252 11 gusting 17 6.7
2014-Dec-21 22:15 243 10 gusting 15 6.7
2014-Dec-21 22:05 244 9 gusting 15 6.7
2014-Dec-21 21:55 251 10 gusting 14 6.1
2014-Dec-21 21:45 244 10 gusting 14 6.1
2014-Dec-21 21:35 243 9 gusting 15 6.1
2014-Dec-21 21:25 245 9 gusting 14 6.1
2014-Dec-21 21:15 237 10 gusting 15 6.1
2014-Dec-21 21:05 245 9 gusting 13 6.1
2014-Dec-21 20:55 240 11 gusting 15 6.1
2014-Dec-21 20:45 236 10 gusting 15 6.1
2014-Dec-21 20:35 248 12 gusting 18 6.1
2014-Dec-21 20:25 257 10 gusting 19 6.1
2014-Dec-21 20:15 252 12 gusting 17 6.1
2014-Dec-21 20:05 245 13 gusting 18 6.7
2014-Dec-21 19:55 252 10 gusting 15 6.1
2014-Dec-21 19:45 265 13 gusting 19 6.1
2014-Dec-21 19:35 248 11 gusting 15 6.1
2014-Dec-21 19:25 244 12 gusting 15 6.1
2014-Dec-21 19:15 253 12 gusting 15 6.1
2014-Dec-21 19:05 254 11 gusting 17 6.1
2014-Dec-21 18:55 244 11 gusting 22 6.1
2014-Dec-21 18:45 242 11 gusting 19 6.1
2014-Dec-21 18:35 237 11 gusting 15 6.1
2014-Dec-21 18:25 249 8 gusting 15 6.1
2014-Dec-21 18:05 247 8 gusting 15 5.6
2014-Dec-21 17:45 251 8 gusting 15 5.6
2014-Dec-21 17:35 239 9 gusting 15 5.6
2014-Dec-21 17:25 254 9 gusting 15 5.6
2014-Dec-21 17:15 238 9 gusting 14 5.6
2014-Dec-21 17:05 243 8 gusting 13 5.6
2014-Dec-21 16:55 246 8 gusting 13 5.6
2014-Dec-21 16:45 240 10 gusting 13 5.6
2014-Dec-21 16:35 249 8 gusting 14 5.6
2014-Dec-21 16:25 237 8 gusting 15 5.6
2014-Dec-21 16:15 242 9 gusting 13 5.6
2014-Dec-21 16:05 241 10 gusting 15 5.6
2014-Dec-21 15:55 246 10 gusting 13 5.6
2014-Dec-21 15:45 240 7 gusting 13 5.0
2014-Dec-21 15:35 246 7 gusting 12 5.0
2014-Dec-21 15:25 245 7 gusting 13 5.0
2014-Dec-21 15:15 239 7 gusting 12 5.0
2014-Dec-21 15:05 244 8 gusting 13 5.0
2014-Dec-21 14:55 240 8 gusting 13 5.0
2014-Dec-21 14:45 242 8 gusting 14 5.0
2014-Dec-21 14:35 250 8 gusting 13 5.0
2014-Dec-21 14:25 242 7 gusting 12 5.0
2014-Dec-21 14:15 235 8 gusting 12 5.0
2014-Dec-21 14:05 244 6 gusting 10 5.0
2014-Dec-21 13:55 249 7 gusting 10 5.0
2014-Dec-21 13:45 249 7 gusting 12 5.6
2014-Dec-21 13:35 322 8 gusting 14 5.6
2014-Dec-21 13:25 252 9 gusting 13 5.6
2014-Dec-21 13:15 276 7 gusting 13 5.6
2014-Dec-21 13:05 271 9 gusting 14 5.6
2014-Dec-21 12:55 307 8 gusting 15 6.1
2014-Dec-21 12:45 255 7 gusting 13 6.1
2014-Dec-21 12:35 258 8 gusting 13 6.1
2014-Dec-21 12:25 272 6 gusting 15 6.1
2014-Dec-21 12:15 273 10 gusting 15 6.1
2014-Dec-21 12:05 308 10 gusting 15 6.1
2014-Dec-21 11:55 310 10 gusting 17 6.1
2014-Dec-21 11:45 273 10 gusting 15 5.6
2014-Dec-21 11:35 278 10 gusting 15 6.1
2014-Dec-21 11:25 264 8 gusting 13 6.1
2014-Dec-21 11:15 264 10 gusting 15 6.1
2014-Dec-21 11:05 275 9 gusting 17 6.1
2014-Dec-21 10:55 263 12 gusting 15 6.1
2014-Dec-21 10:45 278 9 gusting 13 6.1
2014-Dec-21 10:35 276 11 gusting 17 6.1
2014-Dec-21 10:25 286 10 gusting 15 6.1
2014-Dec-21 10:15 274 10 gusting 17 6.1
2014-Dec-21 10:05 277 12 gusting 18 6.1
2014-Dec-21 09:55 282 11 gusting 18 5.6
2014-Dec-21 09:45 280 8 gusting 15 5.6
2014-Dec-21 09:35 293 11 gusting 15 5.6
2014-Dec-21 09:25 299 11 gusting 15 5.6
2014-Dec-21 09:15 277 9 gusting 13 5.0
2014-Dec-21 09:05 321 7 gusting 15 5.0
2014-Dec-21 08:55 299 8 gusting 13 5.0
2014-Dec-21 08:45 290 7 gusting 14 5.0
2014-Dec-21 08:35 311 10 gusting 17 5.0
2014-Dec-21 08:25 305 10 gusting 14 5.0
2014-Dec-21 08:15 308 10 gusting 15 5.0
2014-Dec-21 08:05 334 11 gusting 15 5.0
2014-Dec-21 07:55 312 10 gusting 15 5.0
2014-Dec-21 07:45 308 8 gusting 15 5.0
2014-Dec-21 07:35 301 11 gusting 15 5.0
2014-Dec-21 07:25 315 13 gusting 17 5.0
2014-Dec-21 07:15 297 10 gusting 17 5.0
2014-Dec-21 07:05 313 10 gusting 15 5.0
2014-Dec-21 06:55 306 10 gusting 15 5.0
2014-Dec-21 06:45 316 12 gusting 17 5.0
2014-Dec-21 06:35 311 13 gusting 20 5.0
2014-Dec-21 06:25 321 11 gusting 17 5.0
2014-Dec-21 06:15 322 11 gusting 15 5.0
2014-Dec-21 06:05 300 10 gusting 17 5.0
2014-Dec-21 05:55 327 10 gusting 15 5.0
2014-Dec-21 05:45 309 8 gusting 18 5.0
2014-Dec-21 05:35 303 8 gusting 19 4.4
2014-Dec-21 05:25 308 20 gusting 19 4.4
2014-Dec-21 05:15 308 20 gusting 19 4.4
2014-Dec-21 05:05 301 10 gusting 15 4.4
2014-Dec-21 04:55 287 8 gusting 15 4.4
2014-Dec-21 04:45 300 10 gusting 15 4.4
2014-Dec-21 04:35 286 11 gusting 15 4.4
2014-Dec-21 04:25 310 9 gusting 17 4.4
2014-Dec-21 04:15 303 7 gusting 13 4.4
2014-Dec-21 04:05 306 7 gusting 13 4.4
2014-Dec-21 03:55 314 6 gusting 13 4.4
2014-Dec-21 03:45 319 9 gusting 15 4.4
2014-Dec-21 03:25 309 10 gusting 15 4.4
2014-Dec-21 03:15 319 9 gusting 13 4.4
2014-Dec-21 03:05 311 10 gusting 14 4.4
2014-Dec-21 02:55 312 7 gusting 13 4.4
2014-Dec-21 02:45 321 10 gusting 15 4.4
2014-Dec-21 02:35 322 9 gusting 15 4.4
2014-Dec-21 02:25 316 10 gusting 15 3.9
2014-Dec-21 02:15 293 9 gusting 14 3.9
2014-Dec-21 02:05 311 11 gusting 15 4.4
2014-Dec-21 01:55 316 9 gusting 14 4.4
2014-Dec-21 01:45 335 10 gusting 13 4.4
2014-Dec-21 01:35 322 8 gusting 17 4.4
2014-Dec-21 01:25 312 8 gusting 13 4.4
2014-Dec-21 01:15 336 7 gusting 14 3.9
2014-Dec-21 01:05 324 8 gusting 13 3.9
2014-Dec-21 00:55 326 7 gusting 12 3.9
2014-Dec-21 00:45 329 7 gusting 15 3.9
2014-Dec-21 00:35 320 8 gusting 13 3.9
2014-Dec-21 00:25 312 7 gusting 15 3.9
2014-Dec-21 00:15 316 6 gusting 12 3.9
2014-Dec-21 00:05 320 7 gusting 15 3.9
2014-Dec-20 23:55 307 10 gusting 17 3.9
2014-Dec-20 23:45 317 7 gusting 15 4.4
2014-Dec-20 23:35 323 10 gusting 14 4.4
2014-Dec-20 23:25 312 8 gusting 13 4.4
2014-Dec-20 23:15 304 9 gusting 14 4.4
2014-Dec-20 23:05 323 10 gusting 15 4.4
2014-Dec-20 22:55 305 8 gusting 13 4.4
2014-Dec-20 22:45 319 7 gusting 13 4.4
2014-Dec-20 22:35 339 8 gusting 13 4.4
2014-Dec-20 22:25 318 8 gusting 12 4.4
2014-Dec-20 22:15 325 6 gusting 14 4.4
2014-Dec-20 22:05 332 6 gusting 13 4.4
2014-Dec-20 21:55 328 8 gusting 12 4.4
2014-Dec-20 21:45 333 8 gusting 13 5.0
2014-Dec-20 21:35 311 7 gusting 13 5.0
2014-Dec-20 21:25 332 10 gusting 15 5.0
2014-Dec-20 21:15 320 8 gusting 15 5.0
2014-Dec-20 21:05 321 8 gusting 15 5.0
2014-Dec-20 20:55 331 10 gusting 19 5.0
2014-Dec-20 20:45 336 10 gusting 20 5.0
2014-Dec-20 20:35 340 12 gusting 17 5.0
2014-Dec-20 20:25 345 13 gusting 19 5.0
2014-Dec-20 20:15 331 10 gusting 18 5.0
2014-Dec-20 20:05 340 9 gusting 18 5.0
2014-Dec-20 19:55 336 10 gusting 15 5.0
2014-Dec-20 19:45 349 12 gusting 19 5.0
2014-Dec-20 19:35 320 11 gusting 15 4.4
2014-Dec-20 19:25 328 12 gusting 15 4.4
2014-Dec-20 19:15 335 8 gusting 15 5.0
2014-Dec-20 19:05 325 9 gusting 17 5.0
2014-Dec-20 18:55 346 11 gusting 15 5.0
2014-Dec-20 18:45 340 10 gusting 17 5.0
2014-Dec-20 18:35 330 14 gusting 19 5.0
2014-Dec-20 18:25 326 13 gusting 21 5.0
2014-Dec-20 18:15 333 13 gusting 22 5.0
2014-Dec-20 18:05 343 12 gusting 20 5.0
2014-Dec-20 17:55 333 10 gusting 18 5.0
2014-Dec-20 17:45 326 13 gusting 21 5.0
2014-Dec-20 17:35 340 11 gusting 21 5.0
2014-Dec-20 17:25 319 13 gusting 21 5.0
2014-Dec-20 17:15 327 10 gusting 17 5.0
2014-Dec-20 17:05 328 10 gusting 15 5.0
2014-Dec-20 16:55 330 11 gusting 18 4.4
2014-Dec-20 16:45 324 12 gusting 17 4.4
2014-Dec-20 16:35 322 14 gusting 20 4.4
2014-Dec-20 16:25 323 13 gusting 17 4.4
2014-Dec-20 16:15 321 12 gusting 19 4.4
2014-Dec-20 16:05 320 12 gusting 19 4.4
2014-Dec-20 15:55 300 13 gusting 19 3.9
2014-Dec-20 15:45 322 14 gusting 22 3.9
2014-Dec-20 15:35 313 13 gusting 18 3.3
2014-Dec-20 15:25 317 9 gusting 18 3.3
2014-Dec-20 15:15 324 12 gusting 21 3.3
2014-Dec-20 15:05 292 12 gusting 19 3.9
2014-Dec-20 14:55 295 13 gusting 19 3.9
2014-Dec-20 14:45 283 11 gusting 19 3.9
2014-Dec-20 14:35 302 13 gusting 21 3.9
2014-Dec-20 14:25 297 11 gusting 19 3.9
2014-Dec-20 14:15 273 13 gusting 19 3.9
2014-Dec-20 14:05 302 11 gusting 15 3.3
2014-Dec-20 13:55 303 11 gusting 21 3.3
2014-Dec-20 13:45 316 11 gusting 18 3.9
2014-Dec-20 13:35 275 10 gusting 15 3.9
2014-Dec-20 13:25 300 9 gusting 15 3.3
2014-Dec-20 13:15 271 10 gusting 17 3.3
2014-Dec-20 13:05 246 8 gusting 14 2.8
2014-Dec-20 12:55 281 10 gusting 17 2.8
2014-Dec-20 12:45 296 10 gusting 15 2.8
2014-Dec-20 12:35 318 8 gusting 14 2.8
2014-Dec-20 12:25 264 11 gusting 17 3.3
2014-Dec-20 12:15 309 12 gusting 15 3.3
2014-Dec-20 12:05 311 14 gusting 21 3.9
2014-Dec-20 11:55 319 17 gusting 24 4.4
2014-Dec-20 11:45 300 12 gusting 19 5.0
2014-Dec-20 11:35 275 10 gusting 19 5.0
2014-Dec-20 11:25 273 10 gusting 15 5.0
2014-Dec-20 11:15 250 11 gusting 17 5.0
2014-Dec-20 11:05 296 11 gusting 18 5.0
2014-Dec-20 10:55 263 9 gusting 19 5.0
2014-Dec-20 10:45 273 7 gusting 18 5.0
2014-Dec-20 10:35 262 11 gusting 18 5.0
2014-Dec-20 10:25 278 10 gusting 18 5.0
2014-Dec-20 10:15 259 0 gusting 11 5.0
2014-Dec-20 10:05 288 5.0
2014-Dec-20 09:55 284 5.0
2014-Dec-20 09:15 312 4.4
2014-Dec-20 09:05 312 3.9